STARLINK-11464, 62473

Orbit data source: Space-Track

STARLINK-11464, 62473 is a payload satellite owned by SpaceX/Seattle (US) in LEO that was launched on Tue, 31 Dec 2024 UTC via an FALCON 9 launch vehicle from the Air Force Eastern Test Range (AFETR). Payload-class satellites include a variety of spacecraft equipped with specific instruments for various scientific and technological missions. These include communications satellites like Starlink; space stations such as the ISS; scientific satellites like the Hubble; Earth observation satellites from companies like Planet Labs, Umbra, and HawkEye 360; GPS; miniature CubeSats for education and research; and military/defense satellites.

Loading next visibility...
Identifier
62473, 2024-254M
Orbit
LEO
Last TLE update
1 day ago
Origin
Manufacturer
SpaceX/Seattle
Mission
Operational Commercial Communications
Bus & Motor
STARLINK V2M, Unknown motor
Mass
730 kg wet, ~700 kg dry
Launch date (UTC)
2024-12-31 (6 months ago)
Launch vehicle
FALCON 9
Launch site
Air Force Eastern Test Range (AFETR)
Object type
Payload
Rocket body
Debris
Shape & HBR
Box + 2 Pan, 29 m
Radar Cross Section
36.964 m², Large (>1 m²)

Expand to show TLE details & history

TLE from 1 day ago
0 STARLINK-11464
1 62473U 24254M   25183.00843866  .00204258  00000-0  15540-2 0  9991
2 62473  42.9991 294.1743 0001237  33.6143 326.4803 15.70878627 30023
Epoch: 2025-07-02T00:12Z
TLE epoch observation values (Epoch: 2025-07-02T00:12:09.1Z)
Latitude
-0°
Longitude
10.84067°
Altitude
355.461 km
Speed
7.698 km/s
True Right ascension
19h 36m 41s
True Declination
0° 00' 00"
Sunlit
Object was in full shadow at epoch
Visualization orbit readout
Latitude
30.35587°
Longitude
42.15091°
Altitude
354.837 km
Speed
7.701 km/s
Apparent Right ascension
00h 56m 42s
Apparent Declination
-6° 28' 22"
Sunlit
Object is in full shadow
Visualization observer readout
Local Sidereal Time
17:09:02
Azimuth
77.145° E
Elevation
-24.667°
Doppler factor
1
Orbital elements
Apogee altitude
359.2 km
Perigee altitude
357.533 km
Semi-major axis
6,736.503 km
Eccentricity
0.00012
Inclination
42.9991°
RAAN
294.1743°
Arg. of periapsis
33.6143°
True anomaly
Unknown
Mean anomaly
326.4803°
Eccentric anomaly
Unknown
Mean motion
3.92547 °/min
Orbital period
91.71 mins
BSTAR
0.001554
Loading maneuver chart data...
Loading SW <> Apogee altitude chart data...
Loading historical data...
Loading historical data...
Loading historical data...
Loading historical data...
Loading historical data...
Loading historical data...
Loading historical data...

STARLINK-11464 Visibility forecast

Observer location: undefined°, undefined°

Span
Click to sort rows by Start time (UTC) header in descending order
Start Az.
Max El. time (UTC)
Max El. Az.
Max El.
End time (UTC)
End Az.
4 mins2025-07-03 11:34:32.337Z257.811° W2025-07-03 11:35:32.337Z294.345° NW44.439°2025-07-03 11:38:32.337Z70.976° E
4 mins2025-07-03 13:10:32.337Z301.306° NW2025-07-03 13:11:32.337Z336.656° NNW32.862°2025-07-03 13:14:32.337Z72.806° E
4 mins2025-07-03 14:46:32.337Z291.491° WNW2025-07-03 14:48:32.337Z89.149° E41.506°2025-07-03 14:50:32.337Z104.471° ESE
|